Preview of NWS' New Version of Forecast
This preview is not operational and should not be used for support decisions.

Regional Weather Roundup (RWR)

Issued by National Weather Service (NWS)

                            
000
ASUS43 KDMX 160601
RWRIA 

WEATHER ROUNDUP FOR IOWA
NATIONAL WEATHER SERVICE DES MOINES IA
100 AM CDT TUE JUL 16 2019

NOTE: "FAIR" INDICATES FEW OR NO CLOUDS BELOW 12,000 FEET WITH NO
SIGNIFICANT WEATHER AND/OR OBSTRUCTIONS TO VISIBILITY.

* - THESE STATIONS ARE NOT NWS STATIONS...THUS NOT UNDER NWS
QUALITY CONTROL.  THEY ALSO DO NOT REPORT WEATHER SUCH 
AS PRECIPITATION OR FOG.  

IAZ001>003-012>014-020>022-031>034-043>046-160700-
   NORTHWEST IOWA
  
CITY           SKY/WX    TMP DP  RH WIND       PRES   REMARKS
CARROLL *      CLOUDY    72  68  88 S6        29.90S                  
CHEROKEE *     MOCLDY    75  72  88 SE3       29.88S                  
DENISON *      CLEAR     73  72  94 CALM      29.92R                  
LE MARS *      CLEAR     77  73  88 S10       29.87R                  
SHELDON *        N/A     75  75 100 S6        29.86F                  
SIOUX CITY     MOCLDY    77  71  82 SE3       29.88R                  
6HR MIN TEMP:  77; 6HR MAX TEMP:  88;                                

SPENCER        CLEAR     78  70  76 S6        29.88S HX  80           
6HR MIN TEMP:  77; 6HR MAX TEMP:  88;                                

STORM LAKE *   CLEAR     73  72  94 S7        29.87S                  
$$
 
IAZ055>058-069>071-079>083-090>094-160700-
   SOUTHWEST IOWA
  
CITY           SKY/WX    TMP DP  RH WIND       PRES   REMARKS
ATLANTIC *     CLEAR     72  70  94 S5        29.90R                  
AUDUBON *      PTCLDY    72  66  83 CALM      29.93R                  
CLARINDA *     CLEAR     72  70  94 CALM      29.92R                  
COUNCIL BLFS * CLEAR     75  73  94 S3        29.89R                  
CRESTON *      CLEAR     70  68  94 S7        29.93R                  
HARLAN  *      PTCLDY    72  70  94 CALM      29.91R                  
LAMONI         CLEAR     71  66  84 S3        29.92F                  
6HR MIN TEMP:  70; 6HR MAX TEMP:  82;                                

RED OAK *      CLEAR     72  68  88 W5        29.91R                  
SHENANDOAH *   CLEAR     72  68  88 CALM      29.89R                  
$$
 
IAZ047>049-059>061-072>074-084-160700-
   CENTRAL IOWA
  
CITY           SKY/WX    TMP DP  RH WIND       PRES   REMARKS
AMES           CLEAR     71  67  87 CALM      29.92R                  
6HR MIN TEMP:  70; 6HR MAX TEMP:  85;                                

ANKENY *       CLEAR     73  68  83 VRB5      29.92R                  
BOONE *        CLEAR     70  70 100 S5        29.91S                  
CHARITON *     CLEAR     70  70 100 SE8       29.91F                  
DES MOINES     PTCLDY    73  66  78 SE9       29.90R                  
6HR MIN TEMP:  73; 6HR MAX TEMP:  85;                                

GRINNELL*      CLEAR     70  66  86 SE8       29.93S                  
KNOXVILLE *      N/A     70  68  94 SE8       29.90F                  
MARSHALLTOWN   CLEAR     72  67  84 SE12      29.91S                  
6HR MIN TEMP:  72; 6HR MAX TEMP:  83;                                

NEWTON *       CLEAR     70  68  94 SE5       29.92R                  
PELLA *        CLEAR     71  65  82 SE7       29.91F                  
$$
 
IAZ004>006-015-016-023>025-035-036-160700-
   NORTH CENTRAL IOWA
  
CITY           SKY/WX    TMP DP  RH WIND       PRES   REMARKS
ALGONA *       FOG       70  70 100 E15G24    29.94R VSB 1            
CLARION *      CLOUDY    73  70  88 S8        29.91S                  
ESTHERVILLE    TSTM      68  66  93 E25G32    29.93R VSB 1            
6HR MIN TEMP:  68; 6HR MAX TEMP:  85; 6HR PCP:  0.69;                

FORT DODGE *   PTCLDY    76  68  76 S7        29.90F                  
MASON CITY     CLOUDY    70  63  78 NE13G20   29.98R                  
6HR MIN TEMP:  70; 6HR MAX TEMP:  85; 6HR PCP: TRACE;                

FOREST CITY *  LGT RAIN  70  68  94 E5        29.96S                  
IOWA FALLS *   FAIR      73  68  87 SE7       29.93S                  
$$

IAZ007>011-017>019-026>030-037>042-050>054-066-160700-
   NORTHEAST IOWA
  
CITY           SKY/WX    TMP DP  RH WIND       PRES   REMARKS
CEDAR RAPIDS   FAIR      70  67  90 S6        29.92F                  
6HR MIN TEMP:  70; 6HR MAX TEMP:  82;                                

CHARLES CITY * CLOUDY    75  68  78 NE9       29.97R                  
CLINTON *      FAIR      71  67  87 S7        29.97F                  
DECORAH *      CLOUDY    70  66  88 CALM      29.95F                  
DUBUQUE        FAIR      69  66  90 S7        29.97S                  
6HR MIN TEMP:  69; 6HR MAX TEMP:  82;                                

MONTICELLO *   FAIR      70  70 100 CALM      29.95S                  
OELWEIN *      PTCLDY    72  70  94 SE5       29.96R                  
WATERLOO       FAIR      75  67  76 SE8       29.92R                  
6HR MIN TEMP:  75; 6HR MAX TEMP:  86;                                

$$
 
IAZ064-065-067-068-078-160700-
   EAST CENTRAL IOWA
  
CITY           SKY/WX    TMP DP  RH WIND       PRES   REMARKS
DAVENPORT      FAIR      72  66  81 S6        29.98F                  
6HR MIN TEMP:  71; 6HR MAX TEMP:  82;                                

IOWA CITY      FAIR      72  67  84 SE6       29.95F                  
6HR MIN TEMP:  72; 6HR MAX TEMP:  85;                                

MT. PLEASANT * CLOUDY    73  70  88 CALM      29.95F                  
MUSCATINE *    FAIR      72  68  88 SE5       29.95F                  
QUAD CITIES    FAIR      70  66  87 SE3       29.96F                  
6HR MIN TEMP:  69; 6HR MAX TEMP:  82;                                

$$
 
IAZ062-063-075>077-085>089-095>099-160700-
   SOUTHEAST IOWA
  
CITY           SKY/WX    TMP DP  RH WIND       PRES   REMARKS
BURLINGTON     CLOUDY    72  68  87 E6        29.95F                  
6HR MIN TEMP:  72; 6HR MAX TEMP:  78;                                

FAIRFIELD *    CLEAR     70  66  88 SE6       29.94F                  
FORT MADISON * CLOUDY    72  70  94 E5        29.96F                  
KEOKUK *       CLOUDY    70  70 100 E7        29.94F FOG              
OSKALOOSA *    FAIR      69  64  85 SE6       29.92F                  
OTTUMWA        CLEAR     70  66  87 SE12      29.92F                  
6HR MIN TEMP:  69; 6HR MAX TEMP:  82;                                

WASHINGTON *   CLEAR     66  66 100 E6        29.93F                  
$$

ABBREVIATIONS USED IN REMARKS
   TC - TEMPERATURES IN CELSIUS
  WCI - WIND CHILL INDEX
   HX - HEAT INDEX
  VSB - VISIBILITY  
$$